Погода в Новогупаловке

Украина / Запорожская область     48°01′25″N   35°25′04″E
темп.,
°C
ветер,
м/с
пор.,
м/с
влажн.,
%
обл.,
%
осадки,
мм/ч
давл.,
гПа
погр.,
м
18 октября, пн
пн1800:00+8ссз49765 0.0 1018178
03:00+6ссз488249 0.0 1018165
06:00+5ссз47885 0.0 1019133
09:00+7ссз4673100 0.0 1020269
12:00+12сз455212 0.0 1019974
15:00+13сз554197 0.0 10181371
18:00+9сз3654100 0.0 1019110
21:00+7сз3860100 0.0 1020187
19 октября, вт
вт1900:00+7з3663100 0.0 1020159
03:00+7зсз4685100 0.4 10191009
06:00+7з4786100 0.8 10191022
09:00+7сз61072100 1.9 1020917
12:00+10ссз895269 0.1 10211754
15:00+11ссз79325 0.1 10212025
18:00+8сз510394 0.0 1023302
21:00+5зсз48490 0.0 1026184
20 октября, ср
ср2000:00+4зсз48591 0.0 1026144
03:00+3зсз48655 0.0 1027142
06:00+2зсз367321 0.0 102899
09:00+5сз356469 0.0 1029243
12:00+9зсз44455 0.0 10291140
15:00+11з343869 0.0 10271361
18:00+9юз3340100 0.0 102740
21:00+7ю3444100 0.0 102763
21 октября, чт
чт2100:00+6ю494898 0.0 1026182
03:00+6ююз5116654 0.0 1025249
06:00+6ююз5127010 0.0 1024259
09:00+9ююз613647 0.0 1024459
12:00+13юз8105699 0.0 1023884
15:00+16ююз81045100 0.0 10201149
18:00+13ююз61354100 0.0 1019394
21:00+10ююз7135665 0.0 1019386
22 октября, пт
пт2200:00+10ююз61570100 0.0 1018436
03:00+9юз61491100 0.0 1017444
06:00+11ююз51088100 0.0 1016584
09:00+11ююз6108778 0.0 1016411
12:00+16юз686428 0.0 1016715
15:00+18юз67500 0.0 1015978
18:00+15ююз33610 0.0 101519
21:00+13ю49615 0.0 1015162